Location: Rumah Sambob
(2.9167°N, 113.9167°E)
Time: 12:18:55
(UTC+00:00)

Cosmos 1441 Rocket - Pass Details

Date: 06 June 2020
Orbit: 497 x 540 km, 81.1° (Epoch: 05 July)

Event Time Altitude Azimuth Distance (km) Brightness Sun altitude
Exits shadow 21:31:13 - 190° (S) 2,501 6.3 -10.8°
Reaches altitude 10° 21:33:08 10° 193° (SSW) 1,703 5.5 -10.4°
Maximum altitude 21:36:50 65° 275° (W) 556 3.1 -9.5°
Drops below altitude 10° 21:40:34 10° 357° (N) 1,716 6.1 -8.7°
Sets 21:42:43 0° 1° (N) 2,605 7.1 -8.2°
